Time,TemperatureF,DewpointF,PressureIn,WindDirection,WindDirectionDegrees,WindSpeedMPH,WindSpeedGustMPH,Humidity,HourlyPrecipIn,Conditions,Clouds,dailyrainin,SoftwareType,DateUTC
2013-02-08 00:00:00,39.4,34.7,30.34,East,84,3.0,5.0,83,0.00,,,0.00,Wunderground v.1.15,2013-02-08 05:00:00,
2013-02-08 00:02:00,39.4,34.7,30.34,ESE,108,3.0,5.0,83,0.00,,,0.00,Wunderground v.1.15,2013-02-08 05:02:00,
2013-02-08 00:04:00,39.4,34.7,30.34,East,91,3.0,5.0,83,0.00,,,0.00,Wunderground v.1.15,2013-02-08 05:04:00,
2013-02-08 00:06:00,39.4,34.7,30.34,East,91,3.0,5.0,83,0.00,,,0.00,Wunderground v.1.15,2013-02-08 05:06:00,
2013-02-08 00:12:00,39.4,34.7,30.34,ENE,75,2.0,3.0,83,0.00,,,0.00,Wunderground v.1.15,2013-02-08 05:12:00,
2013-02-08 00:18:00,39.4,34.7,30.33,SE,128,2.0,4.0,83,0.00,,,0.00,Wunderground v.1.15,2013-02-08 05:18:00,
2013-02-08 00:24:00,39.4,34.7,30.33,ESE,113,4.0,5.0,83,0.00,,,0.00,Wunderground v.1.15,2013-02-08 05:24:00,
2013-02-08 00:30:00,39.5,34.8,30.32,ESE,117,4.0,5.0,83,0.00,,,0.00,Wunderground v.1.15,2013-02-08 05:30:00,
2013-02-08 00:36:00,39.5,35.1,30.32,NE,55,4.0,5.0,84,0.00,,,0.00,Wunderground v.1.15,2013-02-08 05:36:00,
2013-02-08 00:42:00,39.5,35.1,30.32,East,95,3.0,6.0,84,0.00,,,0.00,Wunderground v.1.15,2013-02-08 05:42:00,
2013-02-08 00:48:00,39.5,35.1,30.31,ESE,111,4.0,6.0,84,0.00,,,0.00,Wunderground v.1.15,2013-02-08 05:48:00,
2013-02-08 00:54:00,39.5,34.8,30.32,NE,41,4.0,9.0,83,0.00,,,0.00,Wunderground v.1.15,2013-02-08 05:54:00,
2013-02-08 01:00:00,39.5,34.8,30.31,SSE,147,4.0,4.0,83,0.00,,,0.00,Wunderground v.1.15,2013-02-08 06:00:00,
2013-02-08 01:06:00,39.5,34.8,30.31,East,90,4.0,6.0,83,0.00,,,0.00,Wunderground v.1.15,2013-02-08 06:06:00,
2013-02-08 01:12:00,39.5,34.8,30.31,ESE,121,4.0,4.0,83,0.00,,,0.00,Wunderground v.1.15,2013-02-08 06:12:00,
2013-02-08 01:18:00,39.5,34.8,30.31,ESE,120,4.0,4.0,83,0.00,,,0.00,Wunderground v.1.15,2013-02-08 06:18:00,
2013-02-08 01:24:00,39.6,34.9,30.31,ESE,111,4.0,4.0,83,0.00,,,0.00,Wunderground v.1.15,2013-02-08 06:24:00,
2013-02-08 01:30:00,39.6,34.9,30.30,SE,126,4.0,4.0,83,0.00,,,0.00,Wunderground v.1.15,2013-02-08 06:30:00,
2013-02-08 01:36:00,39.6,34.9,30.30,East,86,4.0,4.0,83,0.00,,,0.00,Wunderground v.1.15,2013-02-08 06:36:00,
2013-02-08 01:42:00,39.6,34.9,30.30,East,81,4.0,4.0,83,0.00,,,0.00,Wunderground v.1.15,2013-02-08 06:42:00,
2013-02-08 01:48:00,39.7,35.3,30.29,ESE,103,4.0,4.0,84,0.00,,,0.00,Wunderground v.1.15,2013-02-08 06:48:00,
2013-02-08 01:54:00,39.7,35.0,30.29,NE,45,4.0,6.0,83,0.00,,,0.00,Wunderground v.1.15,2013-02-08 06:54:00,
2013-02-08 02:00:00,39.7,35.0,30.28,ESE,103,4.0,4.0,83,0.00,,,0.00,Wunderground v.1.15,2013-02-08 07:00:00,
2013-02-08 02:06:00,39.6,35.2,30.28,SE,146,3.0,6.0,84,0.00,,,0.00,Wunderground v.1.15,2013-02-08 07:06:00,
2013-02-08 02:12:00,39.6,35.2,30.27,NE,51,4.0,15.0,84,0.00,,,0.00,Wunderground v.1.15,2013-02-08 07:12:00,
2013-02-08 02:18:00,39.7,35.3,30.27,East,80,5.0,15.0,84,0.00,,,0.00,Wunderground v.1.15,2013-02-08 07:18:00,
2013-02-08 02:24:00,39.8,35.4,30.27,East,88,4.0,7.0,84,0.00,,,0.00,Wunderground v.1.15,2013-02-08 07:24:00,
2013-02-08 02:30:00,39.8,35.4,30.27,SE,129,5.0,7.0,84,0.00,,,0.00,Wunderground v.1.15,2013-02-08 07:30:00,
2013-02-08 02:36:00,39.9,35.5,30.27,ESE,122,5.0,7.0,84,0.00,,,0.00,Wunderground v.1.15,2013-02-08 07:36:00,
2013-02-08 02:42:00,40.0,35.6,30.26,SE,130,4.0,4.0,84,0.00,,,0.00,Wunderground v.1.15,2013-02-08 07:42:00,
2013-02-08 02:48:00,40.0,35.6,30.26,SE,125,5.0,5.0,84,0.00,,,0.00,Wunderground v.1.15,2013-02-08 07:48:00,
2013-02-08 02:54:00,40.0,35.6,30.26,ENE,59,4.0,10.0,84,0.00,,,0.00,Wunderground v.1.15,2013-02-08 07:54:00,
2013-02-08 03:00:00,40.0,35.6,30.26,East,86,4.0,4.0,84,0.00,,,0.00,Wunderground v.1.15,2013-02-08 08:00:00,
2013-02-08 03:06:00,40.0,35.6,30.25,ESE,117,4.0,5.0,84,0.00,,,0.00,Wunderground v.1.15,2013-02-08 08:06:00,
2013-02-08 03:12:00,40.0,35.9,30.24,ENE,74,3.0,13.0,85,0.00,,,0.00,Wunderground v.1.15,2013-02-08 08:12:00,
2013-02-08 03:18:00,40.1,36.0,30.24,ESE,105,3.0,13.0,85,0.00,,,0.00,Wunderground v.1.15,2013-02-08 08:18:00,
2013-02-08 03:24:00,40.1,36.0,30.24,SE,132,3.0,13.0,85,0.00,,,0.00,Wunderground v.1.15,2013-02-08 08:24:00,
2013-02-08 03:30:00,40.1,36.0,30.23,ENE,74,4.0,13.0,85,0.00,,,0.00,Wunderground v.1.15,2013-02-08 08:30:00,
2013-02-08 03:36:00,40.1,36.0,30.23,East,91,4.0,13.0,85,0.00,,,0.00,Wunderground v.1.15,2013-02-08 08:36:00,
2013-02-08 03:42:00,40.1,36.2,30.22,East,88,4.0,13.0,86,0.00,,,0.00,Wunderground v.1.15,2013-02-08 08:42:00,
2013-02-08 03:48:00,40.0,36.2,30.22,East,94,3.0,13.0,86,0.00,,,0.00,Wunderground v.1.15,2013-02-08 08:48:00,
2013-02-08 03:54:00,40.1,36.2,30.21,ENE,63,3.0,13.0,86,0.00,,,0.00,Wunderground v.1.15,2013-02-08 08:54:00,
2013-02-08 04:00:00,40.1,36.5,30.21,ENE,77,4.0,13.0,87,0.00,,,0.00,Wunderground v.1.15,2013-02-08 09:00:00,
2013-02-08 04:06:00,40.2,36.6,30.21,ENE,58,4.0,13.0,87,0.00,,,0.00,Wunderground v.1.15,2013-02-08 09:06:00,
2013-02-08 04:12:00,40.2,36.6,30.21,ENE,67,5.0,7.0,87,0.00,,,0.00,Wunderground v.1.15,2013-02-08 09:12:00,
2013-02-08 04:18:00,40.3,36.7,30.21,ESE,102,4.0,13.0,87,0.00,,,0.00,Wunderground v.1.15,2013-02-08 09:18:00,
2013-02-08 04:24:00,40.3,36.7,30.20,ENE,59,4.0,13.0,87,0.00,,,0.00,Wunderground v.1.15,2013-02-08 09:24:00,
2013-02-08 04:30:00,40.4,36.8,30.20,East,79,4.0,13.0,87,0.00,,,0.00,Wunderground v.1.15,2013-02-08 09:30:00,
2013-02-08 04:36:00,40.4,36.8,30.19,ESE,113,4.0,13.0,87,0.00,,,0.00,Wunderground v.1.15,2013-02-08 09:36:00,
2013-02-08 04:42:00,40.5,36.9,30.19,SE,131,4.0,11.0,87,0.00,,,0.00,Wunderground v.1.15,2013-02-08 09:42:00,
2013-02-08 04:48:00,40.7,37.1,30.19,NE,49,4.0,13.0,87,0.00,,,0.00,Wunderground v.1.15,2013-02-08 09:48:00,
2013-02-08 04:54:00,40.7,37.1,30.19,SE,130,4.0,13.0,87,0.00,,,0.00,Wunderground v.1.15,2013-02-08 09:54:00,
2013-02-08 05:00:00,40.9,37.3,30.18,ENE,65,3.0,3.0,87,0.00,,,0.00,Wunderground v.1.15,2013-02-08 10:00:00,
2013-02-08 05:06:00,41.0,37.4,30.18,ENE,59,3.0,11.0,87,0.00,,,0.00,Wunderground v.1.15,2013-02-08 10:06:00,
2013-02-08 05:12:00,41.1,37.2,30.18,ENE,65,4.0,13.0,86,0.00,,,0.00,Wunderground v.1.15,2013-02-08 10:12:00,
2013-02-08 05:18:00,41.2,37.3,30.18,SE,132,4.0,13.0,86,0.00,,,0.00,Wunderground v.1.15,2013-02-08 10:18:00,
2013-02-08 05:24:00,41.3,37.4,30.17,ENE,78,3.0,13.0,86,0.00,,,0.00,Wunderground v.1.15,2013-02-08 10:24:00,
2013-02-08 05:30:00,41.3,37.4,30.17,ESE,105,4.0,13.0,86,0.00,,,0.00,Wunderground v.1.15,2013-02-08 10:30:00,
2013-02-08 05:36:00,41.4,37.5,30.17,ESE,117,4.0,13.0,86,0.00,,,0.00,Wunderground v.1.15,2013-02-08 10:36:00,
2013-02-08 05:42:00,41.4,37.5,30.16,ENE,78,4.0,10.0,86,0.00,,,0.00,Wunderground v.1.15,2013-02-08 10:42:00,
2013-02-08 05:48:00,41.3,37.7,30.16,East,84,4.0,13.0,87,0.00,,,0.00,Wunderground v.1.15,2013-02-08 10:48:00,
2013-02-08 05:54:00,41.3,37.7,30.16,East,100,4.0,13.0,87,0.00,,,0.00,Wunderground v.1.15,2013-02-08 10:54:00,
2013-02-08 06:00:00,41.2,37.9,30.15,ENE,66,4.0,4.0,88,0.00,,,0.00,Wunderground v.1.15,2013-02-08 11:00:00,
2013-02-08 06:06:00,41.1,38.1,30.15,ESE,105,4.0,13.0,89,0.00,,,0.01,Wunderground v.1.15,2013-02-08 11:06:00,
2013-02-08 06:12:00,41.1,38.4,30.15,East,94,3.0,13.0,90,0.00,,,0.01,Wunderground v.1.15,2013-02-08 11:12:00,
2013-02-08 06:18:00,41.0,38.3,30.15,NE,38,3.0,13.0,90,0.00,,,0.01,Wunderground v.1.15,2013-02-08 11:18:00,
2013-02-08 06:24:00,40.9,38.5,30.14,ENE,63,4.0,13.0,91,0.00,,,0.01,Wunderground v.1.15,2013-02-08 11:24:00,
2013-02-08 06:30:00,40.9,38.5,30.14,NE,42,4.0,4.0,91,0.00,,,0.01,Wunderground v.1.15,2013-02-08 11:30:00,
2013-02-08 06:36:00,41.0,38.9,30.14,East,82,3.0,13.0,92,0.00,,,0.02,Wunderground v.1.15,2013-02-08 11:36:00,
2013-02-08 06:42:00,41.0,38.9,30.13,SSE,155,3.0,13.0,92,0.00,,,0.02,Wunderground v.1.15,2013-02-08 11:42:00,
2013-02-08 06:48:00,41.0,38.9,30.13,East,80,3.0,13.0,92,0.05,,,0.03,Wunderground v.1.15,2013-02-08 11:48:00,
2013-02-08 06:54:00,41.0,39.1,30.13,SE,126,3.0,13.0,93,0.05,,,0.03,Wunderground v.1.15,2013-02-08 11:54:00,
2013-02-08 07:00:00,41.0,40.5,30.13,SSE,163,4.0,13.0,98,0.05,,,0.04,Wunderground v.1.15,2013-02-08 12:00:00,
2013-02-08 07:06:00,41.0,39.1,30.13,NE,52,4.0,13.0,93,0.05,,,0.04,Wunderground v.1.15,2013-02-08 12:06:00,
2013-02-08 07:12:00,41.0,39.1,30.12,NE,38,4.0,13.0,93,0.05,,,0.05,Wunderground v.1.15,2013-02-08 12:12:00,
2013-02-08 07:18:00,41.0,39.1,30.12,East,96,5.0,13.0,93,0.05,,,0.05,Wunderground v.1.15,2013-02-08 12:18:00,
2013-02-08 07:24:00,40.9,39.3,30.12,East,90,5.0,13.0,94,0.06,,,0.06,Wunderground v.1.15,2013-02-08 12:24:00,
2013-02-08 07:30:00,40.9,39.3,30.12,North,11,4.0,4.0,94,0.07,,,0.07,Wunderground v.1.15,2013-02-08 12:30:00,
2013-02-08 07:36:00,40.9,39.3,30.12,ENE,74,3.0,13.0,94,0.07,,,0.07,Wunderground v.1.15,2013-02-08 12:36:00,
2013-02-08 07:42:00,40.8,39.2,30.12,ENE,73,4.0,13.0,94,0.04,,,0.07,Wunderground v.1.15,2013-02-08 12:42:00,
2013-02-08 07:48:00,40.9,39.3,30.11,ESE,113,5.0,13.0,94,0.04,,,0.08,Wunderground v.1.15,2013-02-08 12:48:00,
2013-02-08 07:54:00,40.8,39.2,30.11,ESE,107,5.0,13.0,94,0.08,,,0.09,Wunderground v.1.15,2013-02-08 12:54:00,
2013-02-08 08:00:00,40.8,39.2,30.11,NE,48,4.0,13.0,94,0.06,,,0.09,Wunderground v.1.15,2013-02-08 13:00:00,
2013-02-08 08:06:00,40.8,39.2,30.11,East,83,4.0,16.0,94,0.06,,,0.10,Wunderground v.1.15,2013-02-08 13:06:00,
2013-02-08 08:12:00,40.9,39.3,30.10,North,11,4.0,14.0,94,0.06,,,0.11,Wunderground v.1.15,2013-02-08 13:12:00,
2013-02-08 08:18:00,40.9,39.3,30.10,East,81,4.0,14.0,94,0.06,,,0.11,Wunderground v.1.15,2013-02-08 13:18:00,
2013-02-08 08:24:00,40.9,39.3,30.09,East,90,4.0,13.0,94,0.05,,,0.12,Wunderground v.1.15,2013-02-08 13:24:00,
2013-02-08 08:30:00,40.9,39.3,30.09,NE,43,4.0,4.0,94,0.05,,,0.12,Wunderground v.1.15,2013-02-08 13:30:00,
2013-02-08 08:36:00,40.9,39.6,30.09,ESE,106,5.0,13.0,95,0.06,,,0.13,Wunderground v.1.15,2013-02-08 13:36:00,
2013-02-08 08:42:00,40.8,39.5,30.08,East,83,4.0,13.0,95,0.07,,,0.14,Wunderground v.1.15,2013-02-08 13:42:00,
2013-02-08 08:48:00,40.7,39.4,30.08,ENE,69,4.0,13.0,95,0.10,,,0.15,Wunderground v.1.15,2013-02-08 13:48:00,
2013-02-08 08:54:00,40.6,39.0,30.07,ESE,121,5.0,13.0,94,0.08,,,0.15,Wunderground v.1.15,2013-02-08 13:54:00,
2013-02-08 09:00:00,40.5,38.9,30.07,East,96,5.0,13.0,94,0.07,,,0.16,Wunderground v.1.15,2013-02-08 14:00:00,
2013-02-08 09:06:00,40.4,39.1,30.06,East,82,4.0,13.0,95,0.08,,,0.17,Wunderground v.1.15,2013-02-08 14:06:00,
2013-02-08 09:12:00,40.4,39.1,30.06,East,93,4.0,13.0,95,0.07,,,0.18,Wunderground v.1.15,2013-02-08 14:12:00,
2013-02-08 09:18:00,40.4,39.1,30.05,NE,48,5.0,13.0,95,0.07,,,0.18,Wunderground v.1.15,2013-02-08 14:18:00,
2013-02-08 09:24:00,40.3,39.0,30.05,NE,46,6.0,13.0,95,0.08,,,0.19,Wunderground v.1.15,2013-02-08 14:24:00,
2013-02-08 09:30:00,40.2,38.9,30.05,NE,34,6.0,13.0,95,0.09,,,0.20,Wunderground v.1.15,2013-02-08 14:30:00,
2013-02-08 09:36:00,40.2,38.9,30.05,ENE,66,5.0,13.0,95,0.11,,,0.21,Wunderground v.1.15,2013-02-08 14:36:00,
2013-02-08 09:42:00,40.2,38.9,30.03,NE,54,5.0,6.0,95,0.10,,,0.22,Wunderground v.1.15,2013-02-08 14:42:00,
2013-02-08 09:48:00,40.1,38.8,30.03,SW,219,5.0,13.0,95,0.09,,,0.23,Wunderground v.1.15,2013-02-08 14:48:00,
2013-02-08 09:54:00,40.1,38.8,30.02,ENE,71,6.0,13.0,95,0.06,,,0.23,Wunderground v.1.15,2013-02-08 14:54:00,
2013-02-08 10:00:00,40.1,38.8,30.02,NE,34,6.0,6.0,95,0.06,,,0.24,Wunderground v.1.15,2013-02-08 15:00:00,
2013-02-08 10:06:00,40.1,38.8,30.01,East,80,6.0,13.0,95,0.07,,,0.25,Wunderground v.1.15,2013-02-08 15:06:00,
2013-02-08 10:12:00,40.0,38.7,30.01,SE,130,5.0,13.0,95,0.07,,,0.25,Wunderground v.1.15,2013-02-08 15:12:00,
2013-02-08 10:18:00,40.0,38.7,30.01,East,88,5.0,13.0,95,0.12,,,0.27,Wunderground v.1.15,2013-02-08 15:18:00,
2013-02-08 10:24:00,39.9,38.6,30.00,NNE,15,5.0,13.0,95,0.09,,,0.27,Wunderground v.1.15,2013-02-08 15:24:00,
2013-02-08 10:30:00,39.8,38.5,29.99,NNE,30,6.0,6.0,95,0.10,,,0.29,Wunderground v.1.15,2013-02-08 15:30:00,
2013-02-08 10:36:00,39.7,38.4,29.99,East,94,5.0,13.0,95,0.10,,,0.29,Wunderground v.1.15,2013-02-08 15:36:00,
2013-02-08 10:42:00,39.4,37.8,29.98,ENE,76,6.0,13.0,94,0.07,,,0.30,Wunderground v.1.15,2013-02-08 15:42:00,
2013-02-08 10:48:00,39.0,37.7,29.98,NE,49,6.0,13.0,95,0.07,,,0.31,Wunderground v.1.15,2013-02-08 15:48:00,
2013-02-08 10:54:00,38.7,37.4,29.97,ENE,72,6.0,13.0,95,0.07,,,0.31,Wunderground v.1.15,2013-02-08 15:54:00,
2013-02-08 11:00:00,38.6,37.3,29.97,East,81,7.0,7.0,95,0.05,,,0.32,Wunderground v.1.15,2013-02-08 16:00:00,
2013-02-08 11:06:00,38.5,37.2,29.96,NE,49,7.0,13.0,95,0.08,,,0.33,Wunderground v.1.15,2013-02-08 16:06:00,
2013-02-08 11:12:00,38.4,37.1,29.96,ENE,57,7.0,15.0,95,0.08,,,0.33,Wunderground v.1.15,2013-02-08 16:12:00,
2013-02-08 11:18:00,38.3,37.0,29.95,East,81,7.0,15.0,95,0.09,,,0.34,Wunderground v.1.15,2013-02-08 16:18:00,
2013-02-08 11:24:00,38.2,36.9,29.94,East,82,6.0,13.0,95,0.09,,,0.35,Wunderground v.1.15,2013-02-08 16:24:00,
2013-02-08 11:30:00,38.0,36.7,29.94,ENE,78,7.0,7.0,95,0.06,,,0.36,Wunderground v.1.15,2013-02-08 16:30:00,
2013-02-08 11:36:00,38.0,36.7,29.93,NE,34,7.0,13.0,95,0.08,,,0.37,Wunderground v.1.15,2013-02-08 16:36:00,
2013-02-08 11:42:00,38.0,36.7,29.92,ENE,63,8.0,13.0,95,0.08,,,0.37,Wunderground v.1.15,2013-02-08 16:42:00,
2013-02-08 11:48:00,37.9,36.6,29.91,ENE,70,7.0,13.0,95,0.08,,,0.38,Wunderground v.1.15,2013-02-08 16:48:00,
2013-02-08 11:54:00,37.8,36.5,29.90,ENE,73,7.0,13.0,95,0.10,,,0.39,Wunderground v.1.15,2013-02-08 16:54:00,
2013-02-08 12:00:00,37.8,36.5,29.90,NE,49,8.0,13.0,95,0.07,,,0.40,Wunderground v.1.15,2013-02-08 17:00:00,
2013-02-08 12:06:00,37.8,36.5,29.89,NE,36,9.0,13.0,95,0.08,,,0.41,Wunderground v.1.15,2013-02-08 17:06:00,
2013-02-08 12:12:00,37.8,36.5,29.89,ENE,70,9.0,14.0,95,0.08,,,0.41,Wunderground v.1.15,2013-02-08 17:12:00,
2013-02-08 12:18:00,37.8,36.5,29.88,East,88,8.0,14.0,95,0.07,,,0.42,Wunderground v.1.15,2013-02-08 17:18:00,
2013-02-08 12:24:00,37.7,36.4,29.88,NNE,25,8.0,13.0,95,0.08,,,0.43,Wunderground v.1.15,2013-02-08 17:24:00,
2013-02-08 12:30:00,37.6,36.0,29.86,ESE,122,8.0,8.0,94,0.07,,,0.43,Wunderground v.1.15,2013-02-08 17:30:00,
2013-02-08 12:36:00,37.4,35.8,29.86,ENE,68,8.0,14.0,94,0.05,,,0.44,Wunderground v.1.15,2013-02-08 17:36:00,
2013-02-08 12:42:00,37.3,35.7,29.85,NNE,27,9.0,14.0,94,0.06,,,0.45,Wunderground v.1.15,2013-02-08 17:42:00,
2013-02-08 12:48:00,37.2,35.6,29.83,North,360,9.0,14.0,94,0.06,,,0.45,Wunderground v.1.15,2013-02-08 17:48:00,
2013-02-08 12:54:00,37.1,35.5,29.82,North,355,8.0,13.0,94,0.05,,,0.46,Wunderground v.1.15,2013-02-08 17:54:00,
2013-02-08 13:00:00,37.1,35.5,29.82,NNE,15,9.0,9.0,94,0.05,,,0.46,Wunderground v.1.15,2013-02-08 18:00:00,
2013-02-08 13:06:00,37.1,35.5,29.82,East,90,8.0,13.0,94,0.04,,,0.46,Wunderground v.1.15,2013-02-08 18:06:00,
2013-02-08 13:12:00,37.0,35.4,29.81,NNE,19,8.0,13.0,94,0.04,,,0.47,Wunderground v.1.15,2013-02-08 18:12:00,
2013-02-08 13:18:00,37.0,35.4,29.81,NE,44,8.0,13.0,94,0.04,,,0.47,Wunderground v.1.15,2013-02-08 18:18:00,
2013-02-08 13:24:00,37.0,35.4,29.80,ENE,69,9.0,14.0,94,0.05,,,0.48,Wunderground v.1.15,2013-02-08 18:24:00,
2013-02-08 13:30:00,37.0,35.4,29.79,NE,53,11.0,11.0,94,0.10,,,0.49,Wunderground v.1.15,2013-02-08 18:30:00,
2013-02-08 13:36:00,37.1,35.5,29.78,ENE,63,10.0,13.0,94,0.11,,,0.50,Wunderground v.1.15,2013-02-08 18:36:00,
2013-02-08 13:42:00,37.1,35.5,29.78,ENE,66,9.0,13.0,94,0.11,,,0.51,Wunderground v.1.15,2013-02-08 18:42:00,
2013-02-08 13:48:00,37.1,35.5,29.78,NNE,31,9.0,13.0,94,0.13,,,0.53,Wunderground v.1.15,2013-02-08 18:48:00,
2013-02-08 13:54:00,37.1,35.8,29.77,NE,53,9.0,13.0,95,0.09,,,0.53,Wunderground v.1.15,2013-02-08 18:54:00,
2013-02-08 14:00:00,37.1,35.5,29.77,NE,34,9.0,13.0,94,0.16,,,0.55,Wunderground v.1.15,2013-02-08 19:00:00,
2013-02-08 14:06:00,37.0,35.4,29.76,NE,49,8.0,13.0,94,0.11,,,0.56,Wunderground v.1.15,2013-02-08 19:06:00,
2013-02-08 14:12:00,37.0,35.7,29.76,NE,53,9.0,16.0,95,0.13,,,0.57,Wunderground v.1.15,2013-02-08 19:12:00,
2013-02-08 14:18:00,37.1,35.8,29.75,NE,40,10.0,17.0,95,0.18,,,0.59,Wunderground v.1.15,2013-02-08 19:18:00,
2013-02-08 14:24:00,37.0,35.7,29.75,East,84,8.0,13.0,95,0.26,,,0.61,Wunderground v.1.15,2013-02-08 19:24:00,
2013-02-08 14:30:00,37.0,35.7,29.75,NE,43,7.0,13.0,95,0.22,,,0.63,Wunderground v.1.15,2013-02-08 19:30:00,
2013-02-08 14:36:00,36.8,35.5,29.74,ENE,63,9.0,15.0,95,0.18,,,0.65,Wunderground v.1.15,2013-02-08 19:36:00,
2013-02-08 14:42:00,36.6,35.3,29.74,NNE,27,9.0,13.0,95,0.16,,,0.67,Wunderground v.1.15,2013-02-08 19:42:00,
2013-02-08 14:48:00,36.5,35.2,29.74,NNE,26,9.0,13.0,95,0.12,,,0.68,Wunderground v.1.15,2013-02-08 19:48:00,
2013-02-08 14:54:00,36.5,35.2,29.74,ESE,105,9.0,13.0,95,0.15,,,0.70,Wunderground v.1.15,2013-02-08 19:54:00,
2013-02-08 15:00:00,36.5,35.2,29.73,ENE,59,8.0,8.0,95,0.14,,,0.71,Wunderground v.1.15,2013-02-08 20:00:00,
2013-02-08 15:06:00,36.4,35.1,29.73,NE,48,9.0,13.0,95,0.11,,,0.72,Wunderground v.1.15,2013-02-08 20:06:00,
2013-02-08 15:12:00,36.3,35.0,29.73,North,5,9.0,13.0,95,0.14,,,0.74,Wunderground v.1.15,2013-02-08 20:12:00,
2013-02-08 15:18:00,36.2,34.9,29.72,NNE,31,9.0,13.0,95,0.16,,,0.76,Wunderground v.1.15,2013-02-08 20:18:00,
2013-02-08 15:24:00,36.2,34.9,29.72,NE,47,9.0,13.0,95,0.17,,,0.78,Wunderground v.1.15,2013-02-08 20:24:00,
2013-02-08 15:30:00,36.2,34.9,29.72,NNE,32,8.0,13.0,95,0.16,,,0.80,Wunderground v.1.15,2013-02-08 20:30:00,
2013-02-08 15:36:00,36.1,34.8,29.72,NE,47,8.0,13.0,95,0.15,,,0.81,Wunderground v.1.15,2013-02-08 20:36:00,
2013-02-08 15:42:00,36.1,34.8,29.73,North,355,8.0,11.0,95,0.19,,,0.83,Wunderground v.1.15,2013-02-08 20:42:00,
2013-02-08 15:48:00,36.0,34.7,29.73,NNE,29,9.0,18.0,95,0.12,,,0.84,Wunderground v.1.15,2013-02-08 20:48:00,
2013-02-08 15:54:00,35.9,34.6,29.73,ENE,62,8.0,13.0,95,0.12,,,0.86,Wunderground v.1.15,2013-02-08 20:54:00,
2013-02-08 16:00:00,35.7,34.4,29.73,NE,49,8.0,8.0,95,0.08,,,0.86,Wunderground v.1.15,2013-02-08 21:00:00,
2013-02-08 16:06:00,35.5,34.2,29.72,North,5,9.0,13.0,95,0.08,,,0.87,Wunderground v.1.15,2013-02-08 21:06:00,
2013-02-08 16:12:00,35.4,33.8,29.72,NE,36,8.0,13.0,94,0.06,,,0.88,Wunderground v.1.15,2013-02-08 21:12:00,
2013-02-08 16:18:00,35.3,34.0,29.71,NNW,333,8.0,13.0,95,0.08,,,0.89,Wunderground v.1.15,2013-02-08 21:18:00,
2013-02-08 16:24:00,35.2,33.6,29.71,NNE,19,9.0,13.0,94,0.08,,,0.89,Wunderground v.1.15,2013-02-08 21:24:00,
2013-02-08 16:30:00,35.1,33.5,29.71,NE,34,8.0,13.0,94,0.05,,,0.90,Wunderground v.1.15,2013-02-08 21:30:00,
2013-02-08 16:36:00,35.0,33.4,29.71,NNE,14,7.0,13.0,94,0.05,,,0.90,Wunderground v.1.15,2013-02-08 21:36:00,
2013-02-08 16:42:00,34.9,33.6,29.70,NE,36,7.0,13.0,95,0.05,,,0.91,Wunderground v.1.15,2013-02-08 21:42:00,
2013-02-08 16:48:00,34.9,33.6,29.70,North,360,8.0,13.0,95,0.05,,,0.91,Wunderground v.1.15,2013-02-08 21:48:00,
2013-02-08 16:54:00,34.8,33.5,29.70,NE,35,7.0,13.0,95,0.05,,,0.91,Wunderground v.1.15,2013-02-08 21:54:00,
2013-02-08 17:00:00,34.6,33.1,29.70,NNE,32,7.0,13.0,94,0.04,,,0.92,Wunderground v.1.15,2013-02-08 22:00:00,
2013-02-08 17:06:00,34.6,33.1,29.69,North,5,8.0,13.0,94,0.04,,,0.92,Wunderground v.1.15,2013-02-08 22:06:00,
2013-02-08 17:12:00,34.5,33.0,29.69,ENE,61,8.0,13.0,94,0.04,,,0.93,Wunderground v.1.15,2013-02-08 22:12:00,
2013-02-08 17:18:00,34.5,33.0,29.68,North,360,9.0,13.0,94,0.04,,,0.93,Wunderground v.1.15,2013-02-08 22:18:00,
2013-02-08 17:24:00,34.5,33.0,29.68,NE,36,9.0,13.0,94,0.04,,,0.93,Wunderground v.1.15,2013-02-08 22:24:00,
2013-02-08 17:30:00,34.5,33.0,29.68,NE,46,8.0,8.0,94,0.04,,,0.94,Wunderground v.1.15,2013-02-08 22:30:00,
2013-02-08 17:36:00,34.4,32.9,29.68,NE,41,7.0,13.0,94,0.04,,,0.94,Wunderground v.1.15,2013-02-08 22:36:00,
2013-02-08 17:42:00,34.4,32.9,29.67,ENE,65,8.0,13.0,94,0.05,,,0.95,Wunderground v.1.15,2013-02-08 22:42:00,
2013-02-08 17:48:00,34.4,32.9,29.67,NNE,12,9.0,13.0,94,0.16,,,0.97,Wunderground v.1.15,2013-02-08 22:48:00,
2013-02-08 17:54:00,34.3,32.8,29.67,NNE,13,8.0,13.0,94,0.17,,,0.98,Wunderground v.1.15,2013-02-08 22:54:00,
2013-02-08 18:00:00,34.4,32.9,29.68,NNE,24,8.0,18.0,94,0.13,,,1.00,Wunderground v.1.15,2013-02-08 23:00:00,
2013-02-08 18:06:00,34.4,32.9,29.67,NE,39,10.0,18.0,94,0.12,,,1.01,Wunderground v.1.15,2013-02-08 23:06:00,
2013-02-08 18:12:00,34.4,32.9,29.67,NE,41,9.0,13.0,94,0.07,,,1.01,Wunderground v.1.15,2013-02-08 23:12:00,
2013-02-08 18:18:00,34.3,32.8,29.67,North,350,8.0,14.0,94,0.06,,,1.02,Wunderground v.1.15,2013-02-08 23:18:00,
2013-02-08 18:24:00,34.3,32.8,29.67,NNE,32,9.0,13.0,94,0.06,,,1.03,Wunderground v.1.15,2013-02-08 23:24:00,
2013-02-08 18:30:00,34.3,32.8,29.67,NNE,29,8.0,8.0,94,0.06,,,1.03,Wunderground v.1.15,2013-02-08 23:30:00,
2013-02-08 18:36:00,34.3,32.8,29.67,NNE,12,7.0,14.0,94,0.05,,,1.03,Wunderground v.1.15,2013-02-08 23:36:00,
2013-02-08 18:42:00,34.2,32.7,29.67,NE,47,8.0,13.0,94,0.00,,,1.03,Wunderground v.1.15,2013-02-08 23:42:00,
2013-02-08 18:48:00,33.9,32.4,29.66,NE,37,8.0,14.0,94,0.00,,,1.04,Wunderground v.1.15,2013-02-08 23:48:00,
2013-02-08 18:54:00,33.7,32.2,29.66,NNE,12,8.0,14.0,94,0.00,,,1.04,Wunderground v.1.15,2013-02-08 23:54:00,
2013-02-08 19:00:00,33.5,32.0,29.66,NNW,331,7.0,13.0,94,0.00,,,1.04,Wunderground v.1.15,2013-02-09 00:00:00,
2013-02-08 19:06:00,33.3,31.8,29.66,North,355,7.0,13.0,94,0.00,,,1.04,Wunderground v.1.15,2013-02-09 00:06:00,
2013-02-08 19:12:00,33.2,31.9,29.66,NNE,19,8.0,8.0,95,0.00,,,1.04,Wunderground v.1.15,2013-02-09 00:12:00,
2013-02-08 19:18:00,33.1,31.8,29.66,North,355,8.0,13.0,95,0.00,,,1.04,Wunderground v.1.15,2013-02-09 00:18:00,
2013-02-08 19:24:00,33.0,31.7,29.66,NNE,21,7.0,13.0,95,0.00,,,1.04,Wunderground v.1.15,2013-02-09 00:24:00,
2013-02-08 19:30:00,33.0,31.7,29.67,NNE,22,7.0,13.0,95,0.00,,,1.04,Wunderground v.1.15,2013-02-09 00:30:00,
2013-02-08 19:36:00,32.9,31.6,29.66,NE,44,6.0,13.0,95,0.00,,,1.04,Wunderground v.1.15,2013-02-09 00:36:00,
2013-02-08 19:42:00,32.9,31.6,29.66,North,9,6.0,13.0,95,0.00,,,1.04,Wunderground v.1.15,2013-02-09 00:42:00,
2013-02-08 19:48:00,32.8,31.5,29.66,NNW,347,6.0,13.0,95,0.00,,,1.04,Wunderground v.1.15,2013-02-09 00:48:00,
2013-02-08 19:54:00,32.7,31.4,29.66,NNE,24,8.0,13.0,95,0.00,,,1.04,Wunderground v.1.15,2013-02-09 00:54:00,
2013-02-08 20:00:00,32.7,31.2,29.66,NE,54,8.0,14.0,94,0.00,,,1.04,Wunderground v.1.15,2013-02-09 01:00:00,
2013-02-08 20:06:00,32.6,31.1,29.67,North,355,9.0,14.0,94,0.00,,,1.05,Wunderground v.1.15,2013-02-09 01:06:00,
2013-02-08 20:12:00,32.5,31.0,29.67,North,5,9.0,13.0,94,0.00,,,1.05,Wunderground v.1.15,2013-02-09 01:12:00,
2013-02-08 20:18:00,32.5,31.0,29.67,NNE,24,7.0,13.0,94,0.00,,,1.05,Wunderground v.1.15,2013-02-09 01:18:00,
2013-02-08 20:24:00,32.4,30.9,29.67,North,11,8.0,13.0,94,0.00,,,1.05,Wunderground v.1.15,2013-02-09 01:24:00,
2013-02-08 20:30:00,32.4,30.9,29.66,North,355,9.0,13.0,94,0.00,,,1.05,Wunderground v.1.15,2013-02-09 01:30:00,
2013-02-08 20:36:00,32.4,30.6,29.67,NW,321,8.0,13.0,93,0.00,,,1.05,Wunderground v.1.15,2013-02-09 01:36:00,
2013-02-08 20:42:00,32.4,30.6,29.67,North,5,8.0,13.0,93,0.00,,,1.05,Wunderground v.1.15,2013-02-09 01:42:00,
2013-02-08 20:48:00,32.4,30.6,29.67,North,355,8.0,17.0,93,0.00,,,1.05,Wunderground v.1.15,2013-02-09 01:48:00,
2013-02-08 20:54:00,32.4,30.6,29.68,North,355,6.0,13.0,93,0.00,,,1.05,Wunderground v.1.15,2013-02-09 01:54:00,
2013-02-08 21:00:00,32.4,30.6,29.68,North,355,7.0,13.0,93,0.00,,,1.05,Wunderground v.1.15,2013-02-09 02:00:00,
2013-02-08 21:06:00,32.4,30.6,29.69,North,355,7.0,15.0,93,0.00,,,1.05,Wunderground v.1.15,2013-02-09 02:06:00,
2013-02-08 21:12:00,32.4,30.6,29.70,North,355,7.0,13.0,93,0.00,,,1.05,Wunderground v.1.15,2013-02-09 02:12:00,
2013-02-08 21:18:00,32.4,30.6,29.70,North,355,4.0,13.0,93,0.00,,,1.05,Wunderground v.1.15,2013-02-09 02:18:00,
2013-02-08 21:24:00,32.3,30.5,29.70,North,355,5.0,13.0,93,0.00,,,1.05,Wunderground v.1.15,2013-02-09 02:24:00,
2013-02-08 21:30:00,32.1,30.3,29.71,North,355,6.0,13.0,93,0.00,,,1.05,Wunderground v.1.15,2013-02-09 02:30:00,
2013-02-08 21:36:00,31.9,30.4,29.71,North,355,7.0,13.0,94,0.00,,,1.05,Wunderground v.1.15,2013-02-09 02:36:00,
2013-02-08 21:42:00,31.7,30.2,29.71,North,355,6.0,8.0,94,0.00,,,1.05,Wunderground v.1.15,2013-02-09 02:42:00,
2013-02-08 21:48:00,31.6,30.1,29.72,North,355,6.0,16.0,94,0.00,,,1.05,Wunderground v.1.15,2013-02-09 02:48:00,
2013-02-08 21:54:00,31.4,29.9,29.72,North,355,7.0,13.0,94,0.00,,,1.05,Wunderground v.1.15,2013-02-09 02:54:00,
2013-02-08 22:00:00,31.3,29.8,29.72,North,355,7.0,7.0,94,0.00,,,1.05,Wunderground v.1.15,2013-02-09 03:00:00,
2013-02-08 22:06:00,31.3,29.8,29.72,North,355,6.0,13.0,94,0.00,,,1.05,Wunderground v.1.15,2013-02-09 03:06:00,
2013-02-08 22:12:00,31.2,29.9,29.73,North,355,6.0,13.0,95,0.00,,,1.05,Wunderground v.1.15,2013-02-09 03:12:00,
2013-02-08 22:18:00,31.3,30.0,29.72,North,355,6.0,13.0,95,0.00,,,1.05,Wunderground v.1.15,2013-02-09 03:18:00,
2013-02-08 22:24:00,31.3,30.0,29.73,North,355,6.0,13.0,95,0.00,,,1.05,Wunderground v.1.15,2013-02-09 03:24:00,
2013-02-08 22:30:00,31.3,30.0,29.73,North,355,5.0,13.0,95,0.00,,,1.05,Wunderground v.1.15,2013-02-09 03:30:00,
2013-02-08 22:36:00,31.4,30.1,29.73,North,355,5.0,13.0,95,0.00,,,1.05,Wunderground v.1.15,2013-02-09 03:36:00,
2013-02-08 22:42:00,31.4,30.1,29.73,North,355,5.0,13.0,95,0.00,,,1.05,Wunderground v.1.15,2013-02-09 03:42:00,
2013-02-08 22:48:00,31.2,29.9,29.74,North,355,6.0,13.0,95,0.00,,,1.05,Wunderground v.1.15,2013-02-09 03:48:00,
2013-02-08 22:54:00,31.2,29.9,29.74,North,355,7.0,13.0,95,0.00,,,1.05,Wunderground v.1.15,2013-02-09 03:54:00,
2013-02-08 23:00:00,31.1,29.8,29.74,North,355,7.0,13.0,95,0.00,,,1.05,Wunderground v.1.15,2013-02-09 04:00:00,
2013-02-08 23:06:00,31.0,29.7,29.75,North,355,7.0,13.0,95,0.00,,,1.05,Wunderground v.1.15,2013-02-09 04:06:00,
2013-02-08 23:12:00,30.9,29.6,29.75,North,355,7.0,10.0,95,0.00,,,1.05,Wunderground v.1.15,2013-02-09 04:12:00,
2013-02-08 23:18:00,30.8,29.5,29.75,North,355,7.0,14.0,95,0.00,,,1.05,Wunderground v.1.15,2013-02-09 04:18:00,
2013-02-08 23:24:00,30.6,29.3,29.76,North,355,7.0,13.0,95,0.00,,,1.05,Wunderground v.1.15,2013-02-09 04:24:00,
2013-02-08 23:30:00,30.4,29.1,29.76,North,355,7.0,7.0,95,0.00,,,1.05,Wunderground v.1.15,2013-02-09 04:30:00,
2013-02-08 23:36:00,30.1,28.8,29.76,North,355,8.0,13.0,95,0.00,,,1.05,Wunderground v.1.15,2013-02-09 04:36:00,
2013-02-08 23:42:00,29.9,28.6,29.77,North,355,8.0,13.0,95,0.00,,,1.05,Wunderground v.1.15,2013-02-09 04:42:00,
2013-02-08 23:48:00,29.6,28.3,29.77,North,355,8.0,16.0,95,0.00,,,1.05,Wunderground v.1.15,2013-02-09 04:48:00,
2013-02-08 23:54:00,29.4,28.1,29.78,North,355,8.0,13.0,95,0.00,,,0.00,Wunderground v.1.15,2013-02-09 04:54:00,